Regional Weather Roundup
Issued by NWS

Home | Current Version | Previous Version | Text Only | Print | Product List | Glossary On
Versions: 1 2 3 4 5 6 7 8 9 10 11 12 13 14 15 16 17 18 19 20 21 22 23 24 25 26 27 28 29 30 31 32 33 34 35 36 37 38 39 40 41 42 43 44 45 46 47 48 49 50
000
ASUS44 KJAN 271610
RWRMS

MISSISSIPPI HOURLY WEATHER ROUNDUP
NATIONAL WEATHER SERVICE JACKSON MS
1000 AM CST FRI FEB 27 2015

NOTE: "FAIR: INDICATES FEW OR NO CLOUDS BELOW 12,000 FEET WITH NO
SIGNIFICANT WEATHER AND/OR OBSTRUCTIONS TO VISIBILITY.

MSZ001>002-007>008-010>013-018>021-025>028-034>036-271700-
NORTHWEST MISSISSIPPI

CITY           SKY/WX    TMP DP  RH WIND       PRES   REMARKS
CLARKSDALE     FAIR      27  18  69 N13G18    30.60S WCI  16
CLEVELAND      FAIR      28  20  71 N16       30.57R WCI  16
GREENWOOD        N/A    N/A N/A N/A MISG      30.55R
GREENVILLE     MOSUNNY   29  19  66 NE20      30.55S WCI  16
OLIVE BRANCH   PTSUNNY   25  18  74 NE12      30.58R WCI  14
OXFORD         FAIR      27  16  63 N15       30.56R WCI  15
TUNICA         MOSUNNY   27  19  74 N15       30.61R WCI  15
$$

MSZ003>006-009-014>017-022>024-029>033-037>039-271700-
NORTHEAST MISSISSIPPI

CITY           SKY/WX    TMP DP  RH WIND       PRES   REMARKS
COLUMBUS AFB   SUNNY     33  18  54 N8        30.51R WCI  25
CORINTH        FAIR      28  10  47 NE14      30.55R WCI  17
GOLDN TRIANGLE MOSUNNY   36  23  60 N12       30.49R WCI  27
STARKVILLE     CLOUDY    32  25  74 N8        30.51R WCI  25
TUPELO         SUNNY     29  14  53 NE14      30.54R WCI  18
$$

MSZ040-058-271700-
CENTRAL MISSISSIPPI

CITY           SKY/WX    TMP DP  RH WIND       PRES   REMARKS
JACKSON INTL   CLOUDY    33  24  69 N9        30.48R WCI  25
JACKSON HAWKNS CLOUDY    32  23  69 E9        30.48R WCI  24
MERIDIAN KEY   PTSUNNY   35  24  64 NE13      30.47S WCI  26
MERIDIAN NAS   MOSUNNY   37  23  56 NE9       30.47F WCI  30
VICKSBURG      CLOUDY    30  23  75 NE9       30.52S WCI  22
$$

MSZ059>079-271700-
SOUTH MISSISSIPPI

CITY           SKY/WX    TMP DP  RH WIND       PRES   REMARKS
BROOKHAVEN     CLOUDY    34  28  80 N6        30.47R WCI  29
HATTIESBURG    CLOUDY    35  29  78 N10       30.46R WCI  27
MCCOMB         CLOUDY    35  27  72 N8        30.44R WCI  29
NATCHEZ        CLOUDY    36  25  64 NE9       30.48R WCI  29
PINE BELT      CLOUDY    34  25  69 NE12      30.46R WCI  25
$$

MSZ080>082-271700-
COASTAL MISSISSIPPI

CITY           SKY/WX    TMP DP  RH WIND       PRES   REMARKS
BAY ST LOUIS   SUNNY     41  27  56 NE15G22   30.41S
BILOXI         SUNNY     44  30  59 NE12      30.39R
PASCAGOULA     SUNNY     44  30  57 NE12      30.39S
GULFPORT       SUNNY     43  30  60 NE15G24   30.40R
$$


USA.gov is the U.S. government's official web portal to all federal, state and local government web resources and services.